• In Hungary
  • List of Countries
  • For 7 days
  • Water Temperature
  • Satellite Maps
  • Weather Map
  • News
  • Weather Widgets
  • user-avatar
    Login

    Hourly Weather Barcellona Pozzo di Gotto

    Today, 19 January, Friday

    Time Temperature Precipitation Wind Pressure Humidity
    00:00 +10°C° 0 mm 3 mps 761 mmHg 59%
    01:00 +10°C° 0 mm 3 mps 760 mmHg 63%
    02:00 +10°C° 0 mm 3 mps 760 mmHg 67%
    03:00 +9°C° 0 mm 2 mps 760 mmHg 72%
    04:00 +9°C° 0 mm 2 mps 760 mmHg 76%
    05:00 +9°C° 0 mm 2 mps 759 mmHg 76%
    06:00 +9°C° 0 mm 2 mps 759 mmHg 76%
    07:00 +9°C° 0 mm 2 mps 759 mmHg 76%
    08:00 +12°C° 0 mm 2 mps 759 mmHg 70%
    09:00 +14°C° 0 mm 2 mps 759 mmHg 64%
    10:00 +15°C° 0 mm 2 mps 759 mmHg 58%
    11:00 +16°C° 0 mm 1 mps 759 mmHg 56%
    12:00 +18°C° 0 mm 1 mps 758 mmHg 54%
    13:00 +19°C° 0 mm 1 mps 758 mmHg 53%
    14:00 +18°C° 0 mm 1 mps 757 mmHg 57%
    15:00 +18°C° 0 mm 1 mps 757 mmHg 61%
    16:00 +16°C° 0 mm 1 mps 757 mmHg 65%
    17:00 +15°C° 0 mm 2 mps 757 mmHg 70%
    18:00 +13°C° 0 mm 2 mps 757 mmHg 75%
    19:00 +12°C° 0 mm 2 mps 757 mmHg 81%
    20:00 +12°C° 0 mm 2 mps 757 mmHg 80%
    21:00 +12°C° 0 mm 2 mps 757 mmHg 80%
    22:00 +12°C° 0 mm 2 mps 757 mmHg 79%
    23:00 +12°C° 0 mm 2 mps 757 mmHg 79%

    Tomorrow, 20 January, Saturday

    Time Temperature Precipitation Wind Pressure Humidity
    00:00 +10°C° 0 mm 2 mps 757 mmHg 80%
    01:00 +10°C° 0 mm 2 mps 757 mmHg 80%
    02:00 +12°C° 0 mm 2 mps 756 mmHg 80%
    03:00 +12°C° 0 mm 2 mps 756 mmHg 80%
    04:00 +12°C° 0 mm 2 mps 756 mmHg 80%
    05:00 +12°C° 0 mm 2 mps 756 mmHg 80%
    06:00 +12°C° 0 mm 2 mps 756 mmHg 81%
    07:00 +11°C° 0 mm 3 mps 756 mmHg 82%
    08:00 +12°C° 0 mm 3 mps 756 mmHg 77%
    09:00 +13°C° 0 mm 3 mps 756 mmHg 72%
    10:00 +14°C° 0 mm 4 mps 756 mmHg 67%
    11:00 +14°C° 0 mm 4 mps 756 mmHg 66%
    12:00 +15°C° 0 mm 5 mps 755 mmHg 65%
    13:00 +15°C° 0 mm 5 mps 755 mmHg 64%
    14:00 +15°C° 0 mm 5 mps 755 mmHg 65%
    15:00 +14°C° 0 mm 5 mps 755 mmHg 66%
    16:00 +14°C° 0 mm 5 mps 755 mmHg 67%
    17:00 +13°C° 0 mm 4 mps 755 mmHg 72%
    18:00 +11°C° 0 mm 4 mps 755 mmHg 77%
    19:00 +10°C° 0 mm 4 mps 756 mmHg 82%
    20:00 +10°C° 0 mm 4 mps 756 mmHg 82%
    21:00 +10°C° 0 mm 4 mps 756 mmHg 83%
    22:00 +10°C° 0 mm 4 mps 756 mmHg 84%
    23:00 +10°C° 0 mm 4 mps 756 mmHg 84%

    Day after tomorrow, 21 January, Sunday

    Time Temperature Precipitation Wind Pressure Humidity
    00:00 +9°C° 0 mm 5 mps 756 mmHg 85%
    01:00 +8°C° 0 mm 5 mps 756 mmHg 85%
    02:00 +8°C° 0 mm 5 mps 755 mmHg 84%
    03:00 +8°C° 0 mm 5 mps 755 mmHg 83%
    04:00 +8°C° 0 mm 5 mps 755 mmHg 82%
    05:00 +8°C° 0 mm 5 mps 754 mmHg 82%
    06:00 +8°C° 0 mm 5 mps 754 mmHg 82%
    07:00 +8°C° 0 mm 6 mps 754 mmHg 82%
    08:00 +10°C° 0.1 mm 6 mps 753 mmHg 80%
    09:00 +11°C° 0.1 mm 6 mps 753 mmHg 77%
    10:00 +13°C° 0.1 mm 6 mps 753 mmHg 75%
    11:00 +12°C° 0.3 mm 7 mps 752 mmHg 76%
    12:00 +14°C° 0.3 mm 7 mps 752 mmHg 77%
    13:00 +13°C° 0.3 mm 8 mps 751 mmHg 77%
    14:00 +14°C° 0.2 mm 7 mps 751 mmHg 78%
    15:00 +14°C° 0.2 mm 7 mps 751 mmHg 79%
    16:00 +14°C° 0.2 mm 7 mps 751 mmHg 80%
    17:00 +13°C° 0.1 mm 6 mps 752 mmHg 83%
    18:00 +13°C° 0.1 mm 6 mps 753 mmHg 85%
    19:00 +12°C° 0.1 mm 5 mps 753 mmHg 88%
    20:00 +12°C° 0 mm 5 mps 754 mmHg 89%
    21:00 +12°C° 0 mm 4 mps 754 mmHg 89%
    22:00 +11°C° 0 mm 4 mps 755 mmHg 90%
    23:00 +11°C° 0 mm 4 mps 755 mmHg 90%

    22 January, Monday

    Time Temperature Precipitation Wind Pressure Humidity
    00:00 +11°C° 0 mm 4 mps 755 mmHg 90%
    01:00 +11°C° 0 mm 4 mps 756 mmHg 90%
    02:00 +11°C° 0 mm 4 mps 756 mmHg 89%
    03:00 +11°C° 0 mm 4 mps 756 mmHg 89%
    04:00 +11°C° 0 mm 4 mps 756 mmHg 89%
    05:00 +11°C° 0 mm 4 mps 756 mmHg 89%
    06:00 +11°C° 0 mm 4 mps 756 mmHg 89%
    07:00 +11°C° 0 mm 3 mps 757 mmHg 89%
    08:00 +12°C° 0 mm 3 mps 757 mmHg 82%
    09:00 +14°C° 0 mm 3 mps 757 mmHg 76%
    10:00 +17°C° 0 mm 3 mps 758 mmHg 69%
    11:00 +17°C° 0 mm 3 mps 758 mmHg 67%
    12:00 +18°C° 0 mm 3 mps 758 mmHg 65%
    13:00 +18°C° 0 mm 3 mps 758 mmHg 64%
    14:00 +18°C° 0 mm 3 mps 758 mmHg 68%
    15:00 +17°C° 0 mm 3 mps 758 mmHg 72%
    16:00 +16°C° 0 mm 3 mps 758 mmHg 76%
    17:00 +14°C° 0 mm 3 mps 758 mmHg 81%
    18:00 +13°C° 0 mm 3 mps 759 mmHg 86%
    19:00 +12°C° 0 mm 3 mps 759 mmHg 91%
    20:00 +12°C° 0 mm 3 mps 759 mmHg 90%
    21:00 +12°C° 0 mm 3 mps 760 mmHg 90%
    22:00 +12°C° 0 mm 3 mps 760 mmHg 89%
    23:00 +13°C° 0 mm 2 mps 760 mmHg 89%

    23 January, Tuesday

    Time Temperature Precipitation Wind Pressure Humidity
    00:00 +13°C° 0 mm 2 mps 759 mmHg 88%
    01:00 +13°C° 0 mm 2 mps 759 mmHg 87%
    02:00 +12°C° 0 mm 2 mps 759 mmHg 87%
    03:00 +12°C° 0 mm 2 mps 759 mmHg 87%
    04:00 +12°C° 0 mm 2 mps 759 mmHg 87%
    05:00 +12°C° 0 mm 2 mps 759 mmHg 87%
    06:00 +12°C° 0 mm 2 mps 759 mmHg 87%
    07:00 +12°C° 0 mm 1 mps 760 mmHg 87%
    08:00 +14°C° 0 mm 1 mps 760 mmHg 82%
    09:00 +15°C° 0 mm 1 mps 760 mmHg 77%
    10:00 +18°C° 0 mm 1 mps 760 mmHg 71%
    11:00 +17°C° 0 mm 2 mps 760 mmHg 70%
    12:00 +17°C° 0 mm 2 mps 760 mmHg 69%
    13:00 +18°C° 0 mm 2 mps 760 mmHg 68%
    14:00 +17°C° 0 mm 2 mps 760 mmHg 73%
    15:00 +16°C° 0 mm 2 mps 760 mmHg 78%
    16:00 +16°C° 0 mm 2 mps 760 mmHg 84%
    17:00 +15°C° 0.1 mm 2 mps 760 mmHg 86%
    18:00 +14°C° 0.1 mm 2 mps 761 mmHg 89%
    19:00 +14°C° 0.1 mm 2 mps 761 mmHg 92%
    20:00 +13°C° 0.1 mm 1 mps 762 mmHg 92%
    21:00 +13°C° 0.1 mm 1 mps 762 mmHg 92%
    22:00 +13°C° 0.1 mm 1 mps 763 mmHg 93%
    23:00 +13°C° 0.1 mm 2 mps 763 mmHg 92%

    24 January, Wednesday

    Time Temperature Precipitation Wind Pressure Humidity
    00:00 +13°C° 0.1 mm 2 mps 764 mmHg 92%
    01:00 +12°C° 0.1 mm 2 mps 764 mmHg 92%
    02:00 +12°C° 0 mm 2 mps 764 mmHg 90%
    03:00 +12°C° 0 mm 2 mps 764 mmHg 89%
    04:00 +12°C° 0 mm 2 mps 765 mmHg 87%
    05:00 +10°C° 0 mm 2 mps 765 mmHg 86%
    06:00 +10°C° 0 mm 2 mps 766 mmHg 86%
    07:00 +10°C° 0 mm 2 mps 766 mmHg 85%
    08:00 +12°C° 0 mm 2 mps 767 mmHg 81%
    09:00 +14°C° 0 mm 2 mps 767 mmHg 77%
    10:00 +15°C° 0 mm 2 mps 768 mmHg 72%
    11:00 +15°C° 0 mm 2 mps 768 mmHg 70%
    12:00 +16°C° 0 mm 2 mps 767 mmHg 68%
    13:00 +16°C° 0 mm 2 mps 767 mmHg 65%
    14:00 +16°C° 0 mm 2 mps 767 mmHg 68%
    15:00 +15°C° 0 mm 2 mps 768 mmHg 71%
    16:00 +15°C° 0 mm 2 mps 768 mmHg 74%
    17:00 +14°C° 0 mm 2 mps 768 mmHg 79%
    18:00 +13°C° 0 mm 2 mps 768 mmHg 83%
    19:00 +12°C° 0 mm 2 mps 769 mmHg 87%
    20:00 +12°C° 0 mm 2 mps 769 mmHg 88%
    21:00 +12°C° 0 mm 2 mps 769 mmHg 88%
    22:00 +12°C° 0 mm 2 mps 769 mmHg 89%
    23:00 +10°C° 0 mm 2 mps 769 mmHg 89%
    Show more